sat.trackr.live / text

‹ back to catalog

STARLINK-32024

NORAD 60112 · 2024-117X

PAYLOAD ACTIVE UNKNOWN

§ Identity

Operator
Country
US
Launch date
2024-06-23
Launch site
AFETR
Launch vehicle
Mass (kg)
RCS (m²)

Purposes: comms

External: N2YO · Heavens-Above · Gunter

§ Orbital elements

Epoch: 2026-09-21T06:33:57.207456Z

Period
93.85 min
Inclination
53.1596°
Eccentricity
0.0001905
Mean motion
15.34388041 rev/d
Perigee alt
461.4 km
Apogee alt
464.0 km
Semi-major
6,840.9 km
B*
-4.5225e-6
RAAN
206.3553°
Arg perigee
82.0135°
Mean anomaly
278.1084°
Rev number
12,686

§ Raw data

STARLINK-320241 60112U 24117X   26264.27357879 -.00000529  00000+0 -45225-5 0  99932 60112  53.1596 206.3553 0001905  82.0135 278.1084 15.34388041126869

JSON: /api/v1/satellites/60112 · /tle

For live sub-satellite position, see the globe view (requires WebGL).

§ Visibility from observer

Set your observer location to see the next 7 days of passes ≥ 10°. The values pass through the URL so the page stays shareable.

No JS? Fill the form by hand. The geolocation button needs JavaScript.